THEMIS A

Last updated on Thu Dec 18 2025 00:02:41 GMT+0000 (Coordinated Universal Time)

1 30580U 07004A 25350.91354470 -.00000447 00000+0 22067-2 0 9999 2 30580 5.2364 134.4129 8439700 153.9848 305.4951 0.87835611 39672
UTC large
Height (km)
Speed (km/s)
/
Latitude / Longitude
Inclination (degrees)
Orbital Period (minutes)
Azimuth
Elevation
Range (km)
Doppler Factor

Next 0 passes for location: London (51.5072 / 0.1276)

Sorry there are no passes over London.